STARLINK-3116, 49146

Orbit data source: Space-Track

STARLINK-3116, 49146 is a payload satellite owned by SpaceX/Seattle (US) in LEO that was launched on Tue, 14 Sep 2021 UTC via an FALCON 9 launch vehicle from the Air Force Western Test Range (AFWTR). Payload-class satellites include a variety of spacecraft equipped with specific instruments for various scientific and technological missions. These include communications satellites like Starlink; space stations such as the ISS; scientific satellites like the Hubble; Earth observation satellites from companies like Planet Labs, Umbra, and HawkEye 360; GPS; miniature CubeSats for education and research; and military/defense satellites.

Loading next visibility...
Identifier
49146, 2021-082S
Orbit
LEO
Country
Flag of USUS
Related business
Manufacturer
SpaceX/Seattle
Mission
Operational Commercial Communications
Bus & Motor
STARLINK, Unknown motor
Mass
297 kg wet, ~275 kg dry
Launch date (UTC)
2021-09-14 (4 years ago)
Launch vehicle
FALCON 9
Launch site
Air Force Western Test Range (AFWTR)
Object type
Payload
Rocket body
Debris
Shape & HBR
Box + 1 Pan, 10.1 m
Radar Cross Section
13.562 m², Large (>1 m²)

Expand to show TLE details & history
Last TLE update: 7 hours ago

TLE from 7 hours ago
0 STARLINK-3116
1 49146U 21082S   25310.76778060  .00000393  00000-0  41537-4 0  9998
2 49146  70.0021 224.7850 0002780 268.9984  91.0856 14.97526067229208
Epoch: 2025-11-06T18:25Z
TLE epoch observation values (Epoch: 2025-11-06T18:25:36.243Z)
Latitude
-0.00006°
Longitude
-97.8374°
Altitude
577.003 km
Speed
7.572 km/s
True Right ascension
14h 59m 08s
True Declination
0° 00' 00"
Sunlit
Object was in daylight at epoch
Visualization orbit readout
Latitude
Unknown
Longitude
Unknown
Altitude
Unknown
Speed
Unknown
Apparent Right ascension
Unknown
Apparent Declination
Unknown
Sunlit
N/A
Visualization observer readout
Local Sidereal Time
21:10:10
Azimuth
Unknown
Elevation
Unknown
Doppler factor
Unknown
Orbital elements
Apogee altitude
574.424 km
Perigee altitude
570.56 km
Semi-major axis
6,950.629 km
Eccentricity
0.00028
Inclination
70.0021°
RAAN
224.785°
Arg. of periapsis
268.9984°
True anomaly
91.11745°
Mean anomaly
91.0856°
Eccentric anomaly
91.10153°
Mean motion
3.74548 °/min
Orbital period
96.12 mins
BSTAR
0.000041537
Loading maneuver chart data...
Computing Atmospheric mass density...
Loading historical data...
Loading historical data...
Loading historical data...
Loading historical data...
Loading historical data...
Loading historical data...
Loading historical data...

Documentation

Showing up to 5 results
|